CW6936 Weather Reports


time (UTC)temp
F
wind
direction
speed
knots
gust
knots
rain 1hr
in
rain 24hr
in
rain mn
in
humidity
%
barometer
mb
20260509091510 51 146 4.3 9.6 0.00 0.00 0.00 80 1002.4
20260509091003 51 181 3.5 8.7 0.00 0.00 0.00 80 1002.6
20260509090504 51 163 3.5 7.8 0.00 0.00 0.00 80 1002.6
20260509090014 51 150 3.5 8.7 0.00 0.00 0.00 80 1002.7
20260509085503 51 158 2.6 8.7 0.00 0.00 0.00 80 1002.8
20260509085003 51 183 3.5 7.0 0.00 0.00 0.00 80 1002.9
20260509084003 52 155 2.6 8.7 0.00 0.00 0.00 78 1002.8
20260509083006 52 184 3.5 10.4 0.00 0.00 0.00 78 1003.0
20260509082503 52 159 5.2 10.4 0.00 0.00 0.00 78 1003.2
20260509082004 52 167 3.5 9.6 0.00 0.00 0.00 78 1003.3
20260509081508 52 196 3.5 8.7 0.00 0.00 0.00 77 1003.4
20260509081004 52 188 2.6 8.7 0.00 0.00 0.00 77 1003.4
20260509080504 51 158 1.7 7.0 0.00 0.00 0.00 77 1003.3
20260509080014 51 160 1.7 9.6 0.00 0.00 0.00 76 1003.4
20260509075503 51 182 3.5 9.6 0.00 0.00 0.00 76 1003.4
20260509075003 51 159 1.7 7.8 0.00 0.00 0.00 75 1003.5
20260509074516 50 199 3.5 8.7 0.00 0.00 0.00 74 1003.5
20260509074009 50 178 3.5 8.7 0.00 0.00 0.00 73 1003.6
20260509073503 50 174 2.6 7.8 0.00 0.00 0.00 71 1003.6
20260509073014 50 182 2.6 8.7 0.00 0.00 0.00 70 1003.6
20260509072011 50 197 3.5 7.8 0.00 0.00 0.00 67 1003.8
20260509071504 49 181 2.6 7.0 0.00 0.00 0.00 66 1003.9
20260509071003 49 189 3.5 7.0 0.00 0.00 0.00 63 1004.0
20260509070504 49 150 1.7 7.0 0.00 0.00 0.00 62 1004.0
20260509070008 49 157 2.6 7.0 0.00 0.00 0.00 59 1004.0
20260509065508 50 165 2.6 7.0 0.00 0.00 0.00 57 1004.0
20260509065007 50 189 1.7 5.2 0.00 0.00 0.00 56 1004.0
20260509064528 50 157 1.7 7.8 0.00 0.00 0.00 55 1004.0
20260509064004 50 198 2.6 7.8 0.00 0.00 0.00 54 1004.2
20260509063505 50 165 2.6 7.8 0.00 0.00 0.00 53 1004.3
20260509063017 50 150 3.5 7.8 0.00 0.00 0.00 50 1004.3
20260509062504 50 157 2.6 7.8 0.00 0.00 0.00 48 1004.4
20260509062003 51 130 2.6 7.8 0.00 0.00 0.00 47 1004.4
20260509061535 51 169 3.5 7.8 0.00 0.00 0.00 46 1004.5
20260509061009 51 158 3.5 8.7 0.00 0.00 0.00 44 1004.4
20260509060504 51 181 2.6 8.7 0.00 0.00 0.00 43 1004.4
20260509060006 50 158 4.3 7.8 0.00 0.00 0.00 41 1004.5
20260509055504 50 131 3.5 7.8 0.00 0.00 0.00 41 1004.6
20260509054510 50 142 1.7 6.1 0.00 0.00 0.00 42 1004.7
20260509054005 50 127 2.6 6.1 0.00 0.00 0.00 41 1004.8
20260509053507 50 142 1.7 6.1 0.00 0.00 0.00 42 1004.8
20260509052007 50 154 1.7 6.1 0.00 0.00 0.00 40 1004.7
20260509051521 50 162 2.6 6.1 0.00 0.00 0.00 40 1004.7
20260509051006 51 148 2.6 7.0 0.00 0.00 0.00 39 1004.7
20260509050505 51 140 2.6 8.7 0.00 0.00 0.00 39 1004.8
20260509050025 50 188 2.6 8.7 0.00 0.00 0.00 38 1004.8
20260509045504 50 122 2.6 6.1 0.00 0.00 0.00 40 1004.9
20260509045004 50 149 2.6 6.1 0.00 0.00 0.00 39 1004.9
20260509044511 50 155 1.7 3.5 0.00 0.00 0.00 40 1005.0
20260509044003 49 140 1.7 4.3 0.00 0.00 0.00 42 1004.9
20260509043508 48 142 1.7 4.3 0.00 0.00 0.00 43 1004.9
20260509043014 48 135 0.9 4.3 0.00 0.00 0.00 44 1004.9
20260509042505 48 132 0.9 3.5 0.00 0.00 0.00 45 1005.0
20260509042004 48 128 0.0 1.7 0.00 0.00 0.00 44 1005.0
20260509041516 48 138 0.0 2.6 0.00 0.00 0.00 43 1005.1
20260509041007 48 119 0.0 2.6 0.00 0.00 0.00 44 1005.1
20260509040506 48 133 0.0 1.7 0.00 0.00 0.00 44 1005.1
20260509040014 48 130 0.0 0.9 0.00 0.00 0.00 43 1005.1
20260509035508 48 141 0.0 0.9 0.00 0.00 0.00 44 1005.2
20260509035006 48 143 0.0 0.9 0.00 0.00 0.00 45 1005.3
20260509034533 48 142 0.0 0.0 0.00 0.00 0.00 45 1005.4
20260509034005 48 142 0.0 0.9 0.00 0.00 0.00 45 1005.5
20260509033504 49 142 0.0 1.7 0.00 0.00 0.00 42 1005.5
20260509033011 50 142 0.0 1.7 0.00 0.00 0.00 41 1005.5
20260509032503 50 137 0.0 3.5 0.00 0.00 0.00 40 1005.5
20260509032011 50 150 0.0 4.3 0.00 0.00 0.00 39 1005.6
20260509031518 51 153 0.9 4.3 0.00 0.00 0.00 38 1005.6
20260509031006 51 151 0.9 4.3 0.00 0.00 0.00 36 1005.7
20260509030023 51 153 1.7 5.2 0.00 0.00 0.00 36 1005.8
20260509025507 51 160 0.9 4.3 0.00 0.00 0.00 36 1005.9
20260509025002 51 130 1.7 4.3 0.00 0.00 0.00 35 1006.0
20260509023509 51 136 0.9 4.3 0.00 0.00 0.00 38 1006.2
20260509023015 50 173 1.7 4.3 0.00 0.00 0.00 39 1006.2
20260509022510 50 167 0.9 3.5 0.00 0.00 0.00 40 1006.2
20260509022003 50 170 1.7 3.5 0.00 0.00 0.00 39 1006.2
20260509021516 50 173 0.9 3.5 0.00 0.00 0.00 40 1006.2
20260509021007 50 159 0.0 4.3 0.00 0.00 0.00 40 1006.1
20260509020501 50 167 1.7 4.3 0.00 0.00 0.00 43 1006.1
20260509015504 50 158 0.9 4.3 0.00 0.00 0.00 45 1006.0
20260509015004 50 153 0.9 2.6 0.00 0.00 0.00 46 1006.0
20260509014506 50 153 0.0 0.0 0.00 0.00 0.00 46 1006.0
20260509014002 51 153 0.0 0.0 0.00 0.00 0.00 44 1006.0
20260509013502 51 153 0.0 0.0 0.00 0.00 0.00 44 1006.0
20260509013011 51 153 0.0 0.0 0.00 0.00 0.00 43 1006.0
20260509012503 52 153 0.0 0.0 0.00 0.00 0.00 41 1006.0
20260509011508 53 153 0.0 1.7 0.00 0.00 0.00 39 1006.1
20260509010503 54 155 0.0 1.7 0.00 0.00 0.00 37 1006.0
20260509005508 55 155 0.9 3.5 0.00 0.00 0.00 32 1006.0
20260509005004 56 160 0.9 3.5 0.00 0.00 0.00 31 1006.0
20260509004525 56 152 0.9 2.6 0.00 0.00 0.00 31 1006.1
20260509004005 56 153 0.9 1.7 0.00 0.00 0.00 30 1006.1
20260509003503 57 161 0.9 1.7 0.00 0.00 0.00 30 1006.1
20260509003008 57 175 0.0 4.3 0.00 0.00 0.00 30 1006.1
20260509002503 57 197 1.7 6.1 0.00 0.00 0.00 30 1006.1
20260509002005 58 186 0.9 6.1 0.00 0.00 0.00 30 1006.2
20260509001506 58 169 2.6 6.1 0.00 0.00 0.00 31 1006.3
20260509001004 59 166 3.5 5.2 0.00 0.00 0.00 31 1006.3
20260508235504 59 201 1.7 5.2 0.00 0.00 0.00 28 1006.4
20260508235005 60 208 1.7 5.2 0.00 0.00 0.00 31 1006.5
20260508234004 60 174 2.6 7.0 0.00 0.00 0.00 28 1006.6
20260508233504 60 191 2.6 7.8 0.00 0.00 0.00 27 1006.5
20260508233010 60 203 3.5 9.6 0.00 0.00 0.00 30 1006.6
20260508232502 61 198 4.3 10.4 0.00 0.00 0.00 32 1006.7
20260508232009 61 180 4.3 10.4 0.00 0.00 0.00 28 1006.8
20260508231514 61 225 3.5 9.6 0.00 0.00 0.00 28 1006.7
20260508231004 61 224 3.5 9.6 0.00 0.00 0.00 28 1006.7
20260508230503 61 229 3.5 7.8 0.00 0.00 0.00 29 1006.7
20260508230011 61 244 4.3 8.7 0.00 0.00 0.00 29 1006.7
20260508224507 61 238 1.7 6.1 0.00 0.00 0.00 30 1006.7
20260508223503 61 188 1.7 5.2 0.00 0.00 0.00 29 1006.8
20260508223032 61 219 2.6 10.4 0.00 0.00 0.00 32 1006.9
20260508222504 61 229 4.3 10.4 0.00 0.00 0.00 27 1006.9
20260508222006 61 219 3.5 8.7 0.00 0.00 0.00 28 1006.9
20260508221514 61 236 0.9 9.6 0.00 0.00 0.00 28 1007.0
20260508221003 61 228 4.3 10.4 0.00 0.00 0.00 27 1007.0
20260508220503 61 287 6.1 10.4 0.00 0.00 0.00 26 1007.0
20260508220012 61 254 6.1 8.7 0.00 0.00 0.00 27 1007.0
20260508215503 62 194 3.5 8.7 0.00 0.00 0.00 29 1007.0
20260508215007 62 239 3.5 8.7 0.00 0.00 0.00 31 1007.0
20260508214513 61 177 0.9 11.3 0.00 0.00 0.00 28 1006.9
20260508213503 61 266 5.2 8.7 0.00 0.00 0.00 29 1007.0
20260508213012 62 307 3.5 9.6 0.00 0.00 0.00 30 1007.0
20260508212504 61 296 5.2 9.6 0.00 0.00 0.00 28 1007.1
20260508212004 61 227 5.2 10.4 0.00 0.00 0.00 29 1007.1
20260508211512 62 246 4.3 10.4 0.00 0.00 0.00 29 1007.1
20260508211005 61 254 3.5 9.6 0.00 0.00 0.00 29 1007.2
20260508210504 61 263 4.3 10.4 0.00 0.00 0.00 27 1007.2
20260508210015 62 259 7.0 10.4 0.00 0.00 0.00 27 1007.2
20260508205504 62 261 4.3 9.6 0.00 0.00 0.00 31 1007.2
20260508205003 62 218 4.3 9.6 0.00 0.00 0.00 31 1007.2
20260508204514 61 292 5.2 11.3 0.00 0.00 0.00 27 1007.3
20260508204008 61 299 7.0 11.3 0.00 0.00 0.00 28 1007.3
20260508203505 61 204 5.2 10.4 0.00 0.00 0.00 31 1007.3
20260508203017 62 9 3.5 10.4 0.00 0.00 0.00 31 1007.4
20260508202505 62 323 5.2 10.4 0.00 0.00 0.00 27 1007.5
20260508202005 61 223 1.7 11.3 0.00 0.00 0.00 27 1007.4
20260508201517 62 343 7.0 11.3 0.00 0.00 0.00 29 1007.5
20260508201011 61 268 3.5 7.8 0.00 0.00 0.00 28 1007.5
20260508200504 61 205 0.9 10.4 0.00 0.00 0.00 26 1007.7
20260508200017 61 235 6.1 10.4 0.00 0.00 0.00 28 1007.8
20260508195508 61 213 2.6 9.6 0.00 0.00 0.00 27 1007.8
20260508195005 61 192 1.7 11.3 0.00 0.00 0.00 34 1007.8
20260508194516 61 315 5.2 12.2 0.00 0.00 0.00 28 1007.9
20260508194002 62 267 6.1 12.2 0.00 0.00 0.00 30 1008.0
20260508193505 61 234 5.2 11.3 0.00 0.00 0.00 30 1007.9
20260508193010 62 282 5.2 10.4 0.00 0.00 0.00 28 1008.1
20260508192505 61 213 5.2 12.2 0.00 0.00 0.00 32 1008.0
20260508192006 61 230 7.8 12.2 0.00 0.00 0.00 29 1008.1
20260508191530 61 257 6.1 11.3 0.00 0.00 0.00 30 1008.0
20260508191005 61 240 4.3 12.2 0.00 0.00 0.00 28 1008.1
20260508190505 61 215 4.3 12.2 0.00 0.00 0.00 29 1008.2
20260508190026 61 273 4.3 10.4 0.00 0.00 0.00 29 1008.1
20260508185504 60 297 6.1 10.4 0.00 0.00 0.00 28 1008.2
20260508185004 60 226 2.6 10.4 0.00 0.00 0.00 33 1008.2
20260508184524 60 286 5.2 10.4 0.00 0.00 0.00 30 1008.3
20260508184007 61 261 5.2 13.0 0.00 0.00 0.00 31 1008.3
20260508183506 61 257 4.3 13.0 0.00 0.00 0.00 31 1008.4
20260508183013 61 329 3.5 8.7 0.00 0.00 0.00 31 1008.3
20260508182508 60 320 3.5 10.4 0.00 0.00 0.00 31 1008.4
20260508182006 60 270 5.2 10.4 0.00 0.00 0.00 29 1008.6
20260508181517 60 244 5.2 8.7 0.00 0.00 0.00 29 1008.6
20260508181007 60 216 2.6 11.3 0.00 0.00 0.00 32 1008.6
20260508180507 60 259 3.5 11.3 0.00 0.00 0.00 29 1008.7
20260508180015 60 225 6.1 8.7 0.00 0.00 0.00 30 1008.7
20260508175506 60 249 2.6 10.4 0.00 0.00 0.00 31 1008.7
20260508175006 60 215 3.5 10.4 0.00 0.00 0.00 32 1008.9
20260508174519 61 262 6.1 10.4 0.00 0.00 0.00 35 1008.9
20260508174008 59 202 6.1 10.4 0.00 0.00 0.00 31 1009.0
20260508173505 60 207 5.2 10.4 0.00 0.00 0.00 33 1009.1
20260508173018 59 59 2.6 8.7 0.00 0.00 0.00 35 1009.1
20260508172506 59 240 2.6 11.3 0.00 0.00 0.00 35 1009.3
20260508172008 59 322 1.7 11.3 0.00 0.00 0.00 31 1009.2
20260508171518 60 271 3.5 7.0 0.00 0.00 0.00 34 1009.4
20260508171007 60 5 2.6 7.8 0.00 0.00 0.00 36 1009.6
20260508170502 59 324 2.6 10.4 0.00 0.00 0.00 36 1009.7
20260508170003 59 230 5.2 12.2 0.00 0.00 0.00 33 1009.8
20260508165504 60 187 4.3 12.2 0.00 0.00 0.00 39 1009.9
20260508165004 59 286 4.3 11.3 0.00 0.00 0.00 36 1009.9
20260508164504 58 279 7.0 11.3 0.00 0.00 0.00 34 1010.0
20260508164003 59 245 6.1 11.3 0.00 0.00 0.00 35 1010.1
20260508163502 58 252 4.3 10.4 0.00 0.00 0.00 37 1010.2
20260508163010 58 222 5.2 10.4 0.00 0.00 0.00 35 1010.2
20260508161515 58 290 2.6 9.6 0.00 0.00 0.00 35 1010.1
20260508161006 58 221 3.5 10.4 0.00 0.00 0.00 39 1010.2
20260508160502 57 247 4.3 10.4 0.00 0.00 0.00 37 1010.4
20260508160016 57 196 1.7 9.6 0.00 0.00 0.00 37 1010.2
20260508155503 57 210 3.5 9.6 0.00 0.00 0.00 37 1010.3
20260508155004 57 246 2.6 10.4 0.00 0.00 0.00 39 1010.3
20260508154505 57 214 3.5 10.4 0.00 0.00 0.00 40 1010.3
20260508154002 57 213 5.2 10.4 0.00 0.00 0.00 38 1010.3
20260508153503 58 283 0.0 9.6 0.00 0.00 0.00 40 1010.3
20260508153008 58 162 3.5 9.6 0.00 0.00 0.00 45 1010.4
20260508152507 57 220 5.2 8.7 0.00 0.00 0.00 45 1010.6
20260508152005 57 205 3.5 7.8 0.00 0.00 0.00 39 1010.6
20260508150508 57 195 2.6 9.6 0.00 0.00 0.00 42 1010.7
20260508150021 56 217 4.3 9.6 0.00 0.00 0.00 41 1010.8
20260508145503 56 190 4.3 9.6 0.00 0.00 0.00 46 1010.8
20260508144518 56 241 4.3 8.7 0.00 0.00 0.00 38 1010.8
20260508144002 56 234 4.3 7.8 0.00 0.00 0.00 47 1010.8
20260508143502 55 207 2.6 7.8 0.00 0.00 0.00 38 1010.8
20260508143010 55 214 3.5 7.0 0.00 0.00 0.00 40 1010.8
20260508142502 55 211 1.7 9.6 0.00 0.00 0.00 47 1010.9
20260508142004 54 219 0.9 9.6 0.00 0.00 0.00 52 1010.9
20260508141511 54 217 2.6 7.0 0.00 0.00 0.00 53 1010.9
20260508141004 54 263 3.5 7.0 0.00 0.00 0.00 55 1011.0
20260508140505 54 217 2.6 6.1 0.00 0.00 0.00 55 1011.0
20260508140008 54 194 0.9 5.2 0.00 0.00 0.00 50 1011.0
20260508135007 53 175 2.6 5.2 0.00 0.00 0.00 59 1011.0
20260508134511 53 180 3.5 5.2 0.00 0.00 0.00 59 1011.0
20260508134007 52 178 0.9 5.2 0.00 0.00 0.00 62 1011.0
20260508133005 51 163 0.9 3.5 0.00 0.00 0.00 63 1011.0
20260508132503 50 208 0.0 2.6 0.00 0.00 0.00 1011.1
20260508132005 50 204 1.7 3.5 0.00 0.00 0.00 63 1011.1
20260508131512 50 246 0.9 4.3 0.00 0.00 0.00 63 1011.2
20260508131004 49 220 1.7 4.3 0.00 0.00 0.00 64 1011.2
20260508130507 48 234 1.7 4.3 0.00 0.00 0.00 68 1011.2
20260508130020 48 214 2.6 4.3 0.00 0.00 0.00 67 1011.3
20260508125505 47 212 2.6 4.3 0.00 0.00 0.00 67 1011.3
20260508125004 47 225 1.7 4.3 0.00 0.00 0.00 68 1011.4
20260508124514 46 215 0.9 2.6 0.00 0.00 0.00 67 1011.4
20260508124007 46 209 0.9 2.6 0.00 0.00 0.00 69 1011.3
20260508123509 46 228 0.0 2.6 0.00 0.00 0.00 70 1011.2
20260508123012 45 215 0.9 2.6 0.00 0.00 0.00 68 1011.3
20260508122003 44 170 0.9 3.5 0.00 0.00 0.00 72 1011.1
20260508121511 44 171 0.0 3.5 0.00 0.00 0.00 73 1011.2
20260508121002 43 178 1.7 3.5 0.00 0.00 0.00 74 1011.1
20260508120503 42 136 0.0 0.9 0.00 0.00 0.00 75 1011.1
20260508115504 41 162 0.0 1.7 0.00 0.00 0.00 80 1011.0
20260508115004 40 78 0.0 0.9 0.00 0.00 0.00 84 1011.0
20260508114004 37 73 0.0 0.0 0.00 0.00 0.00 87 1010.7
20260508113017 35 73 0.0 0.0 0.00 0.00 0.00 88 1010.7
20260508112513 35 73 0.0 0.0 0.00 0.00 0.00 89 1010.8
20260508112006 34 73 0.0 0.0 0.00 0.00 0.00 89 1010.7
20260508111527 34 73 0.0 0.0 0.00 0.00 0.00 89 1010.7
20260508111009 33 73 0.0 0.0 0.00 0.00 0.00 89 1010.7
20260508110503 33 73 0.0 0.0 0.00 0.00 0.00 89 1010.7
20260508110010 32 73 0.0 0.0 0.00 0.00 0.00 88 1010.7
20260508105503 33 73 0.0 0.0 0.00 0.00 0.00 88 1010.7
20260508105010 33 73 0.0 0.0 0.00 0.00 0.00 88 1010.6
20260508104510 32 73 0.0 0.0 0.00 0.00 0.00 88 1010.6
20260508104007 33 73 0.0 0.0 0.00 0.00 0.00 88 1010.4
20260508103507 33 73 0.0 0.0 0.00 0.00 0.00 89 1010.3
20260508103025 32 73 0.0 0.0 0.00 0.00 0.00 88 1010.4
20260508102505 32 94 0.0 0.0 0.00 0.00 0.00 88 1010.5
20260508101525 33 94 0.0 0.0 0.00 0.00 0.00 88 1010.4
20260508101004 33 94 0.0 0.0 0.00 0.00 0.00 89 1010.4
20260508100506 33 94 0.0 0.0 0.00 0.00 0.00 89 1010.4
20260508100023 33 94 0.0 0.0 0.00 0.00 0.00 88 1010.6
20260508095507 33 94 0.0 0.0 0.00 0.00 0.00 88 1010.6
20260508095004 33 94 0.0 0.0 0.00 0.00 0.00 88 1010.5
20260508094515 33 94 0.0 0.0 0.00 0.00 0.00 88 1010.6
20260508094006 33 94 0.0 0.0 0.00 0.00 0.00 88 1010.6
20260508093504 34 94 0.0 0.0 0.00 0.00 0.00 88 1010.7
20260508093021 34 94 0.0 0.0 0.00 0.00 0.00 88 1010.6
20260508092506 34 94 0.0 0.0 0.00 0.00 0.00 88 1010.7
20260508092007 34 94 0.0 0.0 0.00 0.00 0.00 87 1010.7